Date String (YYYY-MM-DD hh:mm:ss) UTC,Instrument flags,Ambient pressure (hPa),Sample flow (lpm),Bypass flow (lpm),Sample temperature (°C),Ambient temperature (°C),ASC tube jacket temperature (°C),LED temperature (°C),Box temperature (°C),Sample RH (%),Span deviation,Mass concentration (μg/m³),Mass concentration (μg/m³),Mass concentration (μg/m³)
DateTimeUTC,F1_M11,P_M11,Q1_M11,Q2_M11,T1_M11,T2_M11,T3_M11,T4_M11,T5_M11,U1_M11,ZSPAN_M11,X0_M11,X2_M11,X1_M11
2022-12-28 12:00:00,,0806.8,5.00,0.00,22.5,21.3,00.0,31.4,24.3,15.3,0000.0,0000.16,0000.05,0000.02
2022-12-28 12:01:00,,0806.8,5.00,0.00,22.5,21.3,00.0,31.4,24.3,15.2,0000.0,0000.17,0000.05,0000.02
2022-12-28 12:02:00,,0807.0,5.00,0.00,22.6,21.3,00.0,31.4,24.3,15.3,0000.0,0000.19,0000.06,0000.02
2022-12-28 12:03:00,,0807.0,5.00,0.00,22.6,21.3,00.0,31.4,24.3,15.4,0000.0,0000.22,0000.06,0000.02
2022-12-28 12:04:00,,0806.9,5.00,0.00,22.6,21.3,00.0,31.4,24.4,15.2,0000.0,0000.23,0000.07,0000.02
2022-12-28 12:05:00,,0807.0,5.00,0.00,22.6,21.4,00.0,31.4,24.4,15.1,0000.0,0000.24,0000.07,0000.02
2022-12-28 12:06:00,,0807.0,5.00,0.00,22.6,21.4,00.0,31.4,24.4,15.3,0000.0,0000.27,0000.07,0000.02
2022-12-28 12:07:00,,0807.1,5.00,0.00,22.6,21.4,00.0,31.4,24.4,15.2,0000.0,0000.25,0000.06,0000.02
2022-12-28 12:08:00,,0807.0,5.01,0.00,22.6,21.4,00.0,31.4,24.4,15.2,0000.0,0000.25,0000.06,0000.02
2022-12-28 12:09:00,,0807.0,5.00,0.00,22.6,21.4,00.0,31.4,24.5,15.2,0000.0,0000.24,0000.06,0000.02
2022-12-28 12:10:00,,0807.1,5.00,0.00,22.6,21.4,00.0,31.4,24.4,15.2,0000.0,0000.24,0000.06,0000.02
2022-12-28 12:11:00,,0807.0,5.00,0.00,22.6,21.4,00.0,31.5,24.3,15.3,0000.0,0000.25,0000.06,0000.02
2022-12-28 12:12:00,,0807.0,4.99,0.00,22.6,21.3,00.0,31.5,24.4,15.5,0000.0,0000.27,0000.08,0000.02
2022-12-28 12:13:00,,0806.9,5.00,0.00,22.6,21.4,00.0,31.5,24.4,15.4,0000.0,0000.26,0000.07,0000.02
2022-12-28 12:14:00,,0807.0,5.00,0.00,22.6,21.4,00.0,31.5,24.4,15.3,0000.0,0000.27,0000.08,0000.02
2022-12-28 12:15:00,,0807.0,5.00,0.00,22.6,21.4,00.0,31.5,24.4,15.3,0000.0,0000.25,0000.07,0000.02
2022-12-28 12:16:00,,0807.1,5.00,0.00,22.7,21.4,00.0,31.5,24.4,15.3,0000.0,0000.30,0000.09,0000.02
2022-12-28 12:17:00,,0807.1,4.99,0.00,22.7,21.4,00.0,31.5,24.4,15.2,0000.0,0000.21,0000.09,0000.02
2022-12-28 12:18:00,,0807.2,5.00,0.00,22.7,21.4,00.0,31.5,24.4,15.2,0000.0,0000.20,0000.09,0000.02
2022-12-28 12:19:00,,0807.2,5.00,0.00,22.7,21.5,00.0,31.5,24.5,15.2,0000.0,0000.21,0000.10,0000.03
2022-12-28 12:20:00,,0807.1,5.00,0.00,22.7,21.5,00.0,31.5,24.5,15.3,0000.0,0000.22,0000.10,0000.03
2022-12-28 12:21:00,,0807.1,5.00,0.00,22.7,21.5,00.0,31.5,24.5,15.1,0000.0,0000.22,0000.10,0000.03
2022-12-28 12:22:00,,0807.2,5.01,0.00,22.7,21.5,00.0,31.5,24.5,15.1,0000.0,0000.21,0000.10,0000.03
2022-12-28 12:23:00,,0807.2,5.00,0.00,22.8,21.5,00.0,31.5,24.5,15.0,0000.0,0000.17,0000.08,0000.03
2022-12-28 12:24:00,,0807.2,5.00,0.00,22.8,21.6,00.0,31.6,24.6,15.0,0000.0,0000.16,0000.07,0000.03
2022-12-28 12:25:00,,0807.1,5.00,0.00,22.8,21.6,00.0,31.6,24.6,15.0,0000.0,0000.12,0000.06,0000.03
2022-12-28 12:26:00,,0807.3,5.00,0.00,22.8,21.6,00.0,31.6,24.7,15.0,0000.0,0000.12,0000.06,0000.03
2022-12-28 12:27:00,,0807.3,4.99,0.00,22.8,21.6,00.0,31.6,24.6,14.9,0000.0,0000.06,0000.04,0000.03
2022-12-28 12:28:00,,0807.4,5.00,0.00,22.8,21.6,00.0,31.6,24.7,14.9,0000.0,0000.60,0000.03,0000.02
2022-12-28 12:29:00,,0807.4,4.99,0.00,22.8,21.7,00.0,31.6,24.7,14.9,0000.0,0000.62,0000.03,0000.02
2022-12-28 12:30:00,,0807.4,5.00,0.00,22.9,21.7,00.0,31.6,24.7,14.9,0000.0,0000.61,0000.03,0000.02
2022-12-28 12:31:00,,0807.4,5.00,0.00,22.9,21.7,00.0,31.6,24.7,14.9,0000.0,0000.61,0000.03,0000.02
2022-12-28 12:32:00,,0807.4,5.01,0.00,22.9,21.7,00.0,31.7,24.7,14.9,0000.0,0000.61,0000.03,0000.02
2022-12-28 12:33:00,,0807.4,5.01,0.00,22.9,21.7,00.0,31.7,24.7,14.8,0000.0,0000.65,0000.04,0000.02
2022-12-28 12:34:00,,0807.5,5.00,0.00,22.9,21.8,00.0,31.7,24.8,14.8,0000.0,0000.69,0000.05,0000.02
2022-12-28 12:35:00,,0807.5,5.00,0.00,22.9,21.8,00.0,31.7,24.8,14.8,0000.0,0000.70,0000.05,0000.02
2022-12-28 12:36:00,,0807.5,5.00,0.00,22.9,21.8,00.0,31.7,24.8,14.9,0000.0,0000.70,0000.05,0000.02
2022-12-28 12:37:00,,0807.6,5.00,0.00,22.9,21.8,00.0,31.7,24.8,14.8,0000.0,0000.71,0000.06,0000.02
2022-12-28 12:38:00,,0807.6,5.00,0.00,23.0,21.8,00.0,31.7,24.8,14.8,0000.0,0000.71,0000.06,0000.02
2022-12-28 12:39:00,,0807.6,5.00,0.00,23.0,21.8,00.0,31.7,24.8,14.7,0000.0,0000.24,0000.06,0000.02
2022-12-28 12:40:00,,0807.6,5.00,0.00,23.0,21.8,00.0,31.8,24.8,14.7,0000.0,0001.02,0000.07,0000.02
2022-12-28 12:41:00,,0807.5,5.00,0.00,23.0,21.8,00.0,31.8,24.8,14.6,0000.0,0001.34,0000.07,0000.02
2022-12-28 12:42:00,,0807.5,5.00,0.00,23.0,21.8,00.0,31.8,24.8,14.5,0000.0,0001.34,0000.07,0000.02
2022-12-28 12:43:00,,0807.5,5.00,0.00,23.0,21.8,00.0,31.8,24.8,14.5,0000.0,0001.35,0000.07,0000.03
2022-12-28 12:44:00,,0807.5,5.00,0.00,23.0,21.8,00.0,31.8,24.8,14.4,0000.0,0001.30,0000.06,0000.03
2022-12-28 12:45:00,,0807.5,5.00,0.00,23.0,21.8,00.0,31.8,24.8,14.5,0000.0,0001.27,0000.05,0000.03
2022-12-28 12:46:00,,0807.5,5.00,0.00,23.0,21.8,00.0,31.8,24.8,14.6,0000.0,0001.25,0000.05,0000.03
2022-12-28 12:47:00,,0807.4,5.00,0.00,23.0,21.8,00.0,31.8,24.8,14.7,0000.0,0001.27,0000.06,0000.03
2022-12-28 12:48:00,,0807.4,4.99,0.00,23.0,21.8,00.0,31.8,24.7,15.0,0000.0,0001.88,0000.05,0000.02
2022-12-28 12:49:00,,0807.4,4.99,0.00,23.0,21.7,00.0,31.8,24.7,14.8,0000.0,0002.91,0000.06,0000.02
2022-12-28 12:50:00,,0807.4,5.00,0.00,23.0,21.7,00.0,31.9,24.8,14.8,0000.0,0002.92,0000.06,0000.02
2022-12-28 12:51:00,,0807.4,5.00,0.00,23.0,21.7,00.0,31.9,24.8,14.6,0000.0,0002.15,0000.05,0000.02
2022-12-28 12:52:00,,0807.3,5.00,0.00,23.0,21.7,00.0,31.9,24.8,14.6,0000.0,0001.84,0000.08,0000.02
2022-12-28 12:53:00,,0807.3,5.00,0.00,23.0,21.7,00.0,31.9,24.8,14.5,0000.0,0001.87,0000.09,0000.02
2022-12-28 12:54:00,,0807.2,5.00,0.00,23.0,21.7,00.0,31.9,24.8,14.7,0000.0,0002.31,0000.09,0000.02
2022-12-28 12:55:00,,0807.3,4.99,0.00,23.0,21.7,00.0,31.9,24.8,14.6,0000.0,0003.08,0000.09,0000.02
2022-12-28 12:56:00,,0807.3,5.00,0.00,23.0,21.7,00.0,31.9,24.8,14.6,0000.0,0003.09,0000.09,0000.03
2022-12-28 12:57:00,,0807.4,5.00,0.00,23.0,21.7,00.0,31.9,24.8,14.6,0000.0,0003.12,0000.10,0000.03
2022-12-28 12:58:00,,0807.4,5.01,0.00,23.0,21.6,00.0,31.9,24.8,14.5,0000.0,0003.19,0000.12,0000.03
2022-12-28 12:59:00,,0807.4,5.00,0.00,23.0,21.5,00.0,31.9,24.7,14.5,0000.0,0002.50,0000.12,0000.03
